APRIZESAT 8

Last updated on Tue Sep 22 2026 00:03:51 GMT+0000 (Coordinated Universal Time)

1 39425U 13066K 26264.32037500 .00000692 00000+0 80590-4 0 9991 2 39425 97.8306 210.4912 0045079 331.3580 28.5161 14.87804321693969
UTC large
Height (km)
Speed (km/s)
/
Latitude / Longitude
Inclination (degrees)
Orbital Period (minutes)
Azimuth
Elevation
Range (km)
Doppler Factor

Next 0 passes for location: London (51.5072 / 0.1276)

No passes found over London.
APRIZESAT 8